Location: Milton Keynes
(52.0316°N, 0.7531°W)
Time: 04:18:05
(UTC+00:00)

OTV 5 (USA 277) - Pass Details

Date: 30 January 2019
Orbit: 342 x 346 km, 54.5° (Epoch: 09 February)

Event Time Altitude Azimuth Distance (km) Brightness Sun altitude
Exits shadow 06:52:26 - 253° (WSW) 1,419 ? -8.5°
Reaches altitude 10° 06:52:44 10° 253° (WSW) 1,295 ? -8.5°
Maximum altitude 06:55:37 81° 341° (NNW) 353 ? -8.0°
Drops below altitude 10° 06:58:30 10° 69° (ENE) 1,300 ? -7.6°
Sets 07:00:30 0° 71° (ENE) 2,142 ? -7.3°
